Year,Month,Day,Hour,Minute,Value (Times are PST for temperature in C)
2006,05,16,00,00,16.10
2006,05,16,00,01,16.10
2006,05,16,00,02,16.10
2006,05,16,00,03,16.10
2006,05,16,00,04,16.10
2006,05,16,00,05,16.10
2006,05,16,00,06,16.10
2006,05,16,00,07,16.10
2006,05,16,00,08,16.10
2006,05,16,00,09,16.10
2006,05,16,00,10,16.10
2006,05,16,00,11,16.10
2006,05,16,00,12,16.10
2006,05,16,00,13,16.10
2006,05,16,00,14,16.10
2006,05,16,00,15,16.00
2006,05,16,00,16,15.90
2006,05,16,00,17,15.80
2006,05,16,00,18,15.80
2006,05,16,00,19,15.70
2006,05,16,00,20,15.60
2006,05,16,00,21,15.50
2006,05,16,00,22,15.50
2006,05,16,00,23,15.40
2006,05,16,00,24,15.40
2006,05,16,00,25,15.30
2006,05,16,00,26,15.30
2006,05,16,00,27,15.30
2006,05,16,00,28,15.30
2006,05,16,00,29,15.30
2006,05,16,00,30,15.30
2006,05,16,00,31,15.30
2006,05,16,00,32,15.30
2006,05,16,00,33,15.30
2006,05,16,00,34,15.20
2006,05,16,00,35,15.20
2006,05,16,00,36,15.20
2006,05,16,00,37,15.20
2006,05,16,00,38,15.10
2006,05,16,00,39,15.10
2006,05,16,00,40,15.00
2006,05,16,00,41,14.90
2006,05,16,00,42,14.90
2006,05,16,00,43,14.80
2006,05,16,00,44,14.80
2006,05,16,00,45,14.80
2006,05,16,00,46,14.80
2006,05,16,00,47,14.80
2006,05,16,00,48,14.80
2006,05,16,00,49,14.80
2006,05,16,00,50,14.80
2006,05,16,00,51,14.80
2006,05,16,00,52,14.80
2006,05,16,00,53,14.80
2006,05,16,00,54,14.80
2006,05,16,00,55,14.80
2006,05,16,00,56,14.80
2006,05,16,00,57,14.80
2006,05,16,00,58,14.80
2006,05,16,00,59,14.90
2006,05,16,01,00,15.00
2006,05,16,01,01,15.00
2006,05,16,01,02,15.10
2006,05,16,01,03,15.10
2006,05,16,01,04,15.20
2006,05,16,01,05,15.20
2006,05,16,01,06,15.20
2006,05,16,01,07,15.30
2006,05,16,01,08,15.30
2006,05,16,01,09,15.30
2006,05,16,01,10,15.30
2006,05,16,01,11,15.20
2006,05,16,01,12,15.20
2006,05,16,01,13,15.20
2006,05,16,01,14,15.10
2006,05,16,01,15,15.10
2006,05,16,01,16,15.10
2006,05,16,01,17,15.00
2006,05,16,01,18,15.00
2006,05,16,01,19,15.00
2006,05,16,01,20,14.90
2006,05,16,01,21,14.90
2006,05,16,01,22,14.90
2006,05,16,01,23,14.90
2006,05,16,01,24,14.90
2006,05,16,01,25,14.90
2006,05,16,01,26,14.90
2006,05,16,01,27,14.90
2006,05,16,01,28,14.90
2006,05,16,01,29,14.90
2006,05,16,01,30,14.90
2006,05,16,01,31,14.90
2006,05,16,01,32,14.90
2006,05,16,01,33,14.90
2006,05,16,01,34,14.90
2006,05,16,01,35,14.90
2006,05,16,01,36,14.80
2006,05,16,01,37,14.80
2006,05,16,01,38,14.80
2006,05,16,01,39,14.80
2006,05,16,01,40,14.80
2006,05,16,01,41,14.80
2006,05,16,01,42,14.80
2006,05,16,01,43,14.80
2006,05,16,01,44,14.80
2006,05,16,01,45,14.80
2006,05,16,01,46,14.80
2006,05,16,01,47,14.70
2006,05,16,01,48,14.70
2006,05,16,01,49,14.70
2006,05,16,01,50,14.70
2006,05,16,01,51,14.70
2006,05,16,01,52,14.70
2006,05,16,01,53,14.70
2006,05,16,01,54,14.60
2006,05,16,01,55,14.60
2006,05,16,01,56,14.60
2006,05,16,01,57,14.60
2006,05,16,01,58,14.60
2006,05,16,01,59,14.60
2006,05,16,02,00,14.60
2006,05,16,02,01,14.60
2006,05,16,02,02,14.60
2006,05,16,02,03,14.60
2006,05,16,02,04,14.60
2006,05,16,02,05,14.60
2006,05,16,02,06,14.60
2006,05,16,02,07,14.60
2006,05,16,02,08,14.50
2006,05,16,02,09,14.50
2006,05,16,02,10,14.40
2006,05,16,02,11,14.40
2006,05,16,02,12,14.30
2006,05,16,02,13,14.30
2006,05,16,02,14,14.30
2006,05,16,02,15,14.30
2006,05,16,02,16,14.20
2006,05,16,02,17,14.20
2006,05,16,02,18,14.20
2006,05,16,02,19,14.20
2006,05,16,02,20,14.20
2006,05,16,02,21,14.20
2006,05,16,02,22,14.20
2006,05,16,02,23,14.20
2006,05,16,02,24,14.20
2006,05,16,02,25,14.20
2006,05,16,02,26,14.10
2006,05,16,02,27,14.00
2006,05,16,02,28,14.00
2006,05,16,02,29,13.90
2006,05,16,02,30,13.90
2006,05,16,02,31,13.80
2006,05,16,02,32,13.80
2006,05,16,02,33,13.80
2006,05,16,02,34,13.80
2006,05,16,02,35,13.80
2006,05,16,02,36,13.80
2006,05,16,02,37,13.80
2006,05,16,02,38,13.80
2006,05,16,02,39,13.90
2006,05,16,02,40,13.90
2006,05,16,02,41,13.90
2006,05,16,02,42,13.90
2006,05,16,02,43,13.90
2006,05,16,02,44,13.90
2006,05,16,02,45,14.00
2006,05,16,02,46,14.00
2006,05,16,02,47,14.00
2006,05,16,02,48,14.00
2006,05,16,02,49,13.90
2006,05,16,02,50,13.90
2006,05,16,02,51,13.90
2006,05,16,02,52,13.90
2006,05,16,02,53,13.90
2006,05,16,02,54,13.80
2006,05,16,02,55,13.80
2006,05,16,02,56,13.70
2006,05,16,02,57,13.70
2006,05,16,02,58,13.60
2006,05,16,02,59,13.50
2006,05,16,03,00,13.40
2006,05,16,03,01,13.40
2006,05,16,03,02,13.30
2006,05,16,03,03,13.30
2006,05,16,03,04,13.30
2006,05,16,03,05,13.30
2006,05,16,03,06,13.30
2006,05,16,03,07,13.40
2006,05,16,03,08,13.40
2006,05,16,03,09,13.40
2006,05,16,03,10,13.40
2006,05,16,03,11,13.50
2006,05,16,03,12,13.50
2006,05,16,03,13,13.50
2006,05,16,03,14,13.50
2006,05,16,03,15,13.50
2006,05,16,03,16,13.50
2006,05,16,03,17,13.40
2006,05,16,03,18,13.40
2006,05,16,03,19,13.40
2006,05,16,03,20,13.40
2006,05,16,03,21,13.40
2006,05,16,03,22,13.40
2006,05,16,03,23,13.40
2006,05,16,03,24,13.30
2006,05,16,03,25,13.30
2006,05,16,03,26,13.30
2006,05,16,03,27,13.20
2006,05,16,03,28,13.20
2006,05,16,03,29,13.10
2006,05,16,03,30,13.10
2006,05,16,03,31,13.10
2006,05,16,03,32,13.10
2006,05,16,03,33,13.10
2006,05,16,03,34,13.10
2006,05,16,03,35,13.10
2006,05,16,03,36,13.10
2006,05,16,03,37,13.10
2006,05,16,03,38,13.10
2006,05,16,03,39,13.10
2006,05,16,03,40,13.10
2006,05,16,03,41,13.20
2006,05,16,03,42,13.20
2006,05,16,03,43,13.20
2006,05,16,03,44,13.20
2006,05,16,03,45,13.20
2006,05,16,03,46,13.20
2006,05,16,03,47,13.20
2006,05,16,03,48,13.20
2006,05,16,03,49,13.10
2006,05,16,03,50,13.10
2006,05,16,03,51,13.10
2006,05,16,03,52,13.10
2006,05,16,03,53,13.00
2006,05,16,03,54,13.00
2006,05,16,03,55,12.90
2006,05,16,03,56,12.90
2006,05,16,03,57,12.80
2006,05,16,03,58,12.80
2006,05,16,03,59,12.80
2006,05,16,04,00,12.80
2006,05,16,04,01,12.80
2006,05,16,04,02,12.80
2006,05,16,04,03,12.80
2006,05,16,04,04,12.70
2006,05,16,04,05,12.70
2006,05,16,04,06,12.70
2006,05,16,04,07,12.70
2006,05,16,04,08,12.70
2006,05,16,04,09,12.70
2006,05,16,04,10,12.70
2006,05,16,04,11,12.70
2006,05,16,04,12,12.70
2006,05,16,04,13,12.70
2006,05,16,04,14,12.80
2006,05,16,04,15,12.80
2006,05,16,04,16,12.80
2006,05,16,04,17,12.80
2006,05,16,04,18,12.80
2006,05,16,04,19,12.80
2006,05,16,04,20,12.80
2006,05,16,04,21,12.80
2006,05,16,04,22,12.70
2006,05,16,04,23,12.70
2006,05,16,04,24,12.70
2006,05,16,04,25,12.70
2006,05,16,04,26,12.70
2006,05,16,04,27,12.60
2006,05,16,04,28,12.60
2006,05,16,04,29,12.60
2006,05,16,04,30,12.60
2006,05,16,04,31,12.60
2006,05,16,04,32,12.50
2006,05,16,04,33,12.50
2006,05,16,04,34,12.50
2006,05,16,04,35,12.50
2006,05,16,04,36,12.50
2006,05,16,04,37,12.50
2006,05,16,04,38,12.50
2006,05,16,04,39,12.50
2006,05,16,04,40,12.50
2006,05,16,04,41,12.50
2006,05,16,04,42,12.50
2006,05,16,04,43,12.50
2006,05,16,04,44,12.50
2006,05,16,04,45,12.50
2006,05,16,04,46,12.50
2006,05,16,04,47,12.50
2006,05,16,04,48,12.50
2006,05,16,04,49,12.50
2006,05,16,04,50,12.50
2006,05,16,04,51,12.50
2006,05,16,04,52,12.50
2006,05,16,04,53,12.50
2006,05,16,04,54,12.50
2006,05,16,04,55,12.40
2006,05,16,04,56,12.40
2006,05,16,04,57,12.40
2006,05,16,04,58,12.40
2006,05,16,04,59,12.30
2006,05,16,05,00,12.30
2006,05,16,05,01,12.30
2006,05,16,05,02,12.30
2006,05,16,05,03,12.30
2006,05,16,05,04,12.20
2006,05,16,05,05,12.20
2006,05,16,05,06,12.20
2006,05,16,05,07,12.20
2006,05,16,05,08,12.30
2006,05,16,05,09,12.30
2006,05,16,05,10,12.30
2006,05,16,05,11,12.30
2006,05,16,05,12,12.30
2006,05,16,05,13,12.30
2006,05,16,05,14,12.30
2006,05,16,05,15,12.30
2006,05,16,05,16,12.30
2006,05,16,05,17,12.30
2006,05,16,05,18,12.30
2006,05,16,05,19,12.30
2006,05,16,05,20,12.30
2006,05,16,05,21,12.20
2006,05,16,05,22,12.20
2006,05,16,05,23,12.20
2006,05,16,05,24,12.20
2006,05,16,05,25,12.20
2006,05,16,05,26,12.20
2006,05,16,05,27,12.20
2006,05,16,05,28,12.20
2006,05,16,05,29,12.20
2006,05,16,05,30,12.10
2006,05,16,05,31,12.10
2006,05,16,05,32,12.10
2006,05,16,05,33,12.10
2006,05,16,05,34,12.10
2006,05,16,05,35,12.10
2006,05,16,05,36,12.00
2006,05,16,05,37,12.00
2006,05,16,05,38,12.00
2006,05,16,05,39,12.00
2006,05,16,05,40,12.00
2006,05,16,05,41,12.00
2006,05,16,05,42,12.00
2006,05,16,05,43,12.00
2006,05,16,05,44,12.00
2006,05,16,05,45,12.00
2006,05,16,05,46,11.90
2006,05,16,05,47,11.90
2006,05,16,05,48,11.90
2006,05,16,05,49,11.90
2006,05,16,05,50,11.90
2006,05,16,05,51,12.00
2006,05,16,05,52,12.00
2006,05,16,05,53,12.00
2006,05,16,05,54,12.00
2006,05,16,05,55,12.00
2006,05,16,05,56,12.00
2006,05,16,05,57,12.00
2006,05,16,05,58,12.00
2006,05,16,05,59,12.10
2006,05,16,06,00,12.10
2006,05,16,06,01,12.10
2006,05,16,06,02,12.10
2006,05,16,06,03,12.20
2006,05,16,06,04,12.20
2006,05,16,06,05,12.20
2006,05,16,06,06,12.30
2006,05,16,06,07,12.30
2006,05,16,06,08,12.30
2006,05,16,06,09,12.40
2006,05,16,06,10,12.40
2006,05,16,06,11,12.50
2006,05,16,06,12,12.60
2006,05,16,06,13,12.60
2006,05,16,06,14,12.70
2006,05,16,06,15,12.70
2006,05,16,06,16,12.80
2006,05,16,06,17,12.80
2006,05,16,06,18,12.90
2006,05,16,06,19,12.90
2006,05,16,06,20,13.00
2006,05,16,06,21,13.10
2006,05,16,06,22,13.10
2006,05,16,06,23,13.20
2006,05,16,06,24,13.20
2006,05,16,06,25,13.30
2006,05,16,06,26,13.30
2006,05,16,06,27,13.30
2006,05,16,06,28,13.40
2006,05,16,06,29,13.40
2006,05,16,06,30,13.50
2006,05,16,06,31,13.50
2006,05,16,06,32,13.50
2006,05,16,06,33,13.50
2006,05,16,06,34,13.50
2006,05,16,06,35,13.50
2006,05,16,06,36,13.50
2006,05,16,06,37,13.60
2006,05,16,06,38,13.60
2006,05,16,06,39,13.70
2006,05,16,06,40,13.70
2006,05,16,06,41,13.70
2006,05,16,06,42,13.70
2006,05,16,06,43,13.70
2006,05,16,06,44,13.70
2006,05,16,06,45,13.80
2006,05,16,06,46,13.80
2006,05,16,06,47,13.80
2006,05,16,06,48,13.90
2006,05,16,06,49,13.90
2006,05,16,06,50,14.00
2006,05,16,06,51,14.10
2006,05,16,06,52,14.20
2006,05,16,06,53,14.30
2006,05,16,06,54,14.40
2006,05,16,06,55,14.50
2006,05,16,06,56,14.70
2006,05,16,06,57,14.60
2006,05,16,06,58,14.60
2006,05,16,06,59,14.50
2006,05,16,07,00,14.50
2006,05,16,07,01,14.50
2006,05,16,07,02,14.50
2006,05,16,07,03,14.60
2006,05,16,07,04,14.70
2006,05,16,07,05,14.80
2006,05,16,07,06,14.90
2006,05,16,07,07,15.10
2006,05,16,07,08,15.20
2006,05,16,07,09,15.30
2006,05,16,07,10,15.40
2006,05,16,07,11,15.50
2006,05,16,07,12,15.50
2006,05,16,07,13,15.60
2006,05,16,07,14,15.60
2006,05,16,07,15,15.60
2006,05,16,07,16,15.60
2006,05,16,07,17,15.60
2006,05,16,07,18,15.50
2006,05,16,07,19,15.30
2006,05,16,07,20,15.20
2006,05,16,07,21,15.10
2006,05,16,07,22,15.00
2006,05,16,07,23,14.80
2006,05,16,07,24,14.60
2006,05,16,07,25,14.50
2006,05,16,07,26,14.40
2006,05,16,07,27,14.30
2006,05,16,07,28,14.30
2006,05,16,07,29,14.20
2006,05,16,07,30,14.20
2006,05,16,07,31,14.20
2006,05,16,07,32,14.30
2006,05,16,07,33,14.40
2006,05,16,07,34,14.50
2006,05,16,07,35,14.50
2006,05,16,07,36,14.50
2006,05,16,07,37,14.50
2006,05,16,07,38,14.60
2006,05,16,07,39,14.60
2006,05,16,07,40,14.70
2006,05,16,07,41,14.70
2006,05,16,07,42,14.80
2006,05,16,07,43,14.80
2006,05,16,07,44,14.80
2006,05,16,07,45,14.80
2006,05,16,07,46,14.80
2006,05,16,07,47,14.80
2006,05,16,07,48,14.90
2006,05,16,07,49,14.90
2006,05,16,07,50,15.00
2006,05,16,07,51,15.10
2006,05,16,07,52,15.10
2006,05,16,07,53,15.20
2006,05,16,07,54,15.30
2006,05,16,07,55,15.30
2006,05,16,07,56,15.40
2006,05,16,07,57,15.50
2006,05,16,07,58,15.60
2006,05,16,07,59,15.70
2006,05,16,08,00,15.80
2006,05,16,08,01,15.80
2006,05,16,08,02,15.80
2006,05,16,08,03,15.80
2006,05,16,08,04,15.80
2006,05,16,08,05,15.80
2006,05,16,08,06,15.70
2006,05,16,08,07,15.70
2006,05,16,08,08,15.70
2006,05,16,08,09,15.70
2006,05,16,08,10,15.70
2006,05,16,08,11,15.70
2006,05,16,08,12,15.70
2006,05,16,08,13,15.70
2006,05,16,08,14,15.80
2006,05,16,08,15,15.80
2006,05,16,08,16,15.80
2006,05,16,08,17,15.90
2006,05,16,08,18,15.90
2006,05,16,08,19,15.90
2006,05,16,08,20,15.90
2006,05,16,08,21,16.00
2006,05,16,08,22,16.10
2006,05,16,08,23,16.10
2006,05,16,08,24,16.10
2006,05,16,08,25,16.20
2006,05,16,08,26,16.20
2006,05,16,08,27,16.20
2006,05,16,08,28,16.30
2006,05,16,08,29,16.30
2006,05,16,08,30,16.40
2006,05,16,08,31,16.50
2006,05,16,08,32,16.60
2006,05,16,08,33,16.60
2006,05,16,08,34,16.70
2006,05,16,08,35,16.70
2006,05,16,08,36,16.70
2006,05,16,08,37,16.80
2006,05,16,08,38,16.80
2006,05,16,08,39,16.90
2006,05,16,08,40,17.00
2006,05,16,08,41,17.00
2006,05,16,08,42,17.10
2006,05,16,08,43,17.10
2006,05,16,08,44,17.20
2006,05,16,08,45,17.30
2006,05,16,08,46,17.40
2006,05,16,08,47,17.50
2006,05,16,08,48,17.70
2006,05,16,08,49,17.80
2006,05,16,08,50,17.90
2006,05,16,08,51,18.00
2006,05,16,08,52,18.20
2006,05,16,08,53,18.30
2006,05,16,08,54,18.40
2006,05,16,08,55,18.40
2006,05,16,08,56,18.40
2006,05,16,08,57,18.50
2006,05,16,08,58,18.50
2006,05,16,08,59,18.60
2006,05,16,09,00,18.70
2006,05,16,09,01,18.90
2006,05,16,09,02,19.10
2006,05,16,09,03,19.20
2006,05,16,09,04,19.30
2006,05,16,09,05,19.40
2006,05,16,09,06,19.60
2006,05,16,09,07,19.70
2006,05,16,09,08,19.70
2006,05,16,09,09,19.70
2006,05,16,09,10,19.70
2006,05,16,09,11,19.70
2006,05,16,09,12,19.70
2006,05,16,09,13,19.60
2006,05,16,09,14,19.60
2006,05,16,09,15,19.60
2006,05,16,09,16,19.60
2006,05,16,09,17,19.70
2006,05,16,09,18,19.70
2006,05,16,09,19,19.80
2006,05,16,09,20,19.90
2006,05,16,09,21,19.90
2006,05,16,09,22,19.90
2006,05,16,09,23,19.90
2006,05,16,09,24,19.90
2006,05,16,09,25,19.90
2006,05,16,09,26,19.90
2006,05,16,09,27,19.90
2006,05,16,09,28,19.90
2006,05,16,09,29,19.90
2006,05,16,09,30,19.90
2006,05,16,09,31,19.90
2006,05,16,09,32,19.90
2006,05,16,09,33,20.00
2006,05,16,09,34,20.10
2006,05,16,09,35,20.10
2006,05,16,09,36,20.20
2006,05,16,09,37,20.20
2006,05,16,09,38,20.20
2006,05,16,09,39,20.20
2006,05,16,09,40,20.30
2006,05,16,09,41,20.40
2006,05,16,09,42,20.50
2006,05,16,09,43,20.60
2006,05,16,09,44,20.70
2006,05,16,09,45,20.70
2006,05,16,09,46,20.80
2006,05,16,09,47,20.90
2006,05,16,09,48,21.00
2006,05,16,09,49,21.00
2006,05,16,09,50,21.10
2006,05,16,09,51,21.30
2006,05,16,09,52,21.30
2006,05,16,09,53,21.40
2006,05,16,09,54,21.50
2006,05,16,09,55,21.60
2006,05,16,09,56,21.60
2006,05,16,09,57,21.70
2006,05,16,09,58,21.70
2006,05,16,09,59,21.80
2006,05,16,10,00,21.80
2006,05,16,10,01,21.70
2006,05,16,10,02,21.60
2006,05,16,10,03,21.40
2006,05,16,10,04,21.30
2006,05,16,10,05,21.30
2006,05,16,10,06,21.20
2006,05,16,10,07,21.00
2006,05,16,10,08,20.90
2006,05,16,10,09,20.90
2006,05,16,10,10,20.90
2006,05,16,10,11,20.70
2006,05,16,10,12,20.50
2006,05,16,10,13,20.30
2006,05,16,10,14,20.00
2006,05,16,10,15,19.70
2006,05,16,10,16,19.50
2006,05,16,10,17,19.40
2006,05,16,10,18,19.20
2006,05,16,10,19,19.20
2006,05,16,10,20,19.30
2006,05,16,10,21,19.40
2006,05,16,10,22,19.50
2006,05,16,10,23,19.50
2006,05,16,10,24,19.60
2006,05,16,10,25,19.70
2006,05,16,10,26,19.70
2006,05,16,10,27,19.80
2006,05,16,10,28,19.90
2006,05,16,10,29,19.90
2006,05,16,10,30,20.10
2006,05,16,10,31,20.20
2006,05,16,10,32,20.40
2006,05,16,10,33,20.50
2006,05,16,10,34,20.60
2006,05,16,10,35,20.70
2006,05,16,10,36,20.80
2006,05,16,10,37,21.00
2006,05,16,10,38,21.10
2006,05,16,10,39,21.10
2006,05,16,10,40,21.20
2006,05,16,10,41,21.30
2006,05,16,10,42,21.40
2006,05,16,10,43,21.50
2006,05,16,10,44,21.70
2006,05,16,10,45,21.80
2006,05,16,10,46,22.00
2006,05,16,10,47,22.00
2006,05,16,10,48,22.10
2006,05,16,10,49,22.20
2006,05,16,10,50,22.20
2006,05,16,10,51,22.20
2006,05,16,10,52,22.20
2006,05,16,10,53,22.20
2006,05,16,10,54,22.30
2006,05,16,10,55,22.30
2006,05,16,10,56,22.30
2006,05,16,10,57,22.30
2006,05,16,10,58,22.40
2006,05,16,10,59,22.50
2006,05,16,11,00,22.60
2006,05,16,11,01,22.60
2006,05,16,11,02,22.70
2006,05,16,11,03,22.70
2006,05,16,11,04,22.60
2006,05,16,11,05,22.60
2006,05,16,11,06,22.70
2006,05,16,11,07,22.70
2006,05,16,11,08,22.80
2006,05,16,11,09,22.90
2006,05,16,11,10,22.80
2006,05,16,11,11,22.80
2006,05,16,11,12,22.90
2006,05,16,11,13,22.90
2006,05,16,11,14,22.90
2006,05,16,11,15,22.70
2006,05,16,11,16,22.60
2006,05,16,11,17,22.50
2006,05,16,11,18,22.50
2006,05,16,11,19,22.60
2006,05,16,11,20,22.70
2006,05,16,11,21,22.70
2006,05,16,11,22,22.70
2006,05,16,11,23,22.80
2006,05,16,11,24,22.80
2006,05,16,11,25,22.70
2006,05,16,11,26,22.70
2006,05,16,11,27,22.60
2006,05,16,11,28,22.60
2006,05,16,11,29,22.60
2006,05,16,11,30,22.60
2006,05,16,11,31,22.70
2006,05,16,11,32,22.80
2006,05,16,11,33,22.90
2006,05,16,11,34,22.90
2006,05,16,11,35,22.90
2006,05,16,11,36,23.00
2006,05,16,11,37,23.10
2006,05,16,11,38,23.00
2006,05,16,11,39,22.90
2006,05,16,11,40,22.90
2006,05,16,11,41,22.90
2006,05,16,11,42,22.90
2006,05,16,11,43,22.90
2006,05,16,11,44,23.10
2006,05,16,11,45,23.00
2006,05,16,11,46,22.90
2006,05,16,11,47,22.90
2006,05,16,11,48,22.90
2006,05,16,11,49,22.90
2006,05,16,11,50,23.00
2006,05,16,11,51,23.10
2006,05,16,11,52,23.10
2006,05,16,11,53,23.10
2006,05,16,11,54,23.10
2006,05,16,11,55,23.20
2006,05,16,11,56,23.20
2006,05,16,11,57,23.20
2006,05,16,11,58,23.30
2006,05,16,11,59,23.30
2006,05,16,12,00,23.30
2006,05,16,12,01,23.30
2006,05,16,12,02,23.30
2006,05,16,12,03,23.30
2006,05,16,12,04,23.30
2006,05,16,12,05,23.30
2006,05,16,12,06,23.30
2006,05,16,12,07,23.30
2006,05,16,12,08,23.40
2006,05,16,12,09,23.50
2006,05,16,12,10,23.40
2006,05,16,12,11,23.40
2006,05,16,12,12,23.40
2006,05,16,12,13,23.40
2006,05,16,12,14,23.40
2006,05,16,12,15,23.40
2006,05,16,12,16,23.40
2006,05,16,12,17,23.40
2006,05,16,12,18,23.50
2006,05,16,12,19,23.60
2006,05,16,12,20,23.60
2006,05,16,12,21,23.50
2006,05,16,12,22,23.30
2006,05,16,12,23,23.10
2006,05,16,12,24,23.00
2006,05,16,12,25,22.90
2006,05,16,12,26,22.80
2006,05,16,12,27,22.80
2006,05,16,12,28,22.90
2006,05,16,12,29,22.90
2006,05,16,12,30,22.90
2006,05,16,12,31,23.00
2006,05,16,12,32,23.00
2006,05,16,12,33,22.90
2006,05,16,12,34,23.10
2006,05,16,12,35,23.10
2006,05,16,12,36,23.20
2006,05,16,12,37,23.30
2006,05,16,12,38,23.30
2006,05,16,12,39,23.30
2006,05,16,12,40,23.30
2006,05,16,12,41,23.20
2006,05,16,12,42,23.10
2006,05,16,12,43,23.10
2006,05,16,12,44,23.20
2006,05,16,12,45,23.20
2006,05,16,12,46,23.20
2006,05,16,12,47,23.20
2006,05,16,12,48,23.20
2006,05,16,12,49,23.20
2006,05,16,12,50,23.20
2006,05,16,12,51,23.20
2006,05,16,12,52,23.10
2006,05,16,12,53,23.10
2006,05,16,12,54,22.90
2006,05,16,12,55,22.80
2006,05,16,12,56,22.80
2006,05,16,12,57,22.80
2006,05,16,12,58,22.80
2006,05,16,12,59,22.90
2006,05,16,13,00,22.90
2006,05,16,13,01,23.00
2006,05,16,13,02,23.10
2006,05,16,13,03,23.10
2006,05,16,13,04,23.20
2006,05,16,13,05,23.20
2006,05,16,13,06,23.20
2006,05,16,13,07,23.30
2006,05,16,13,08,23.30
2006,05,16,13,09,23.30
2006,05,16,13,10,23.30
2006,05,16,13,11,23.30
2006,05,16,13,12,23.30
2006,05,16,13,13,23.30
2006,05,16,13,14,23.30
2006,05,16,13,15,23.30
2006,05,16,13,16,23.30
2006,05,16,13,17,23.30
2006,05,16,13,18,23.30
2006,05,16,13,19,23.40
2006,05,16,13,20,23.40
2006,05,16,13,21,23.40
2006,05,16,13,22,23.40
2006,05,16,13,23,23.40
2006,05,16,13,24,23.40
2006,05,16,13,25,23.40
2006,05,16,13,26,23.40
2006,05,16,13,27,23.30
2006,05,16,13,28,23.30
2006,05,16,13,29,23.40
2006,05,16,13,30,23.40
2006,05,16,13,31,23.50
2006,05,16,13,32,23.60
2006,05,16,13,33,23.70
2006,05,16,13,34,23.70
2006,05,16,13,35,23.70
2006,05,16,13,36,23.70
2006,05,16,13,37,23.70
2006,05,16,13,38,23.70
2006,05,16,13,39,23.70
2006,05,16,13,40,23.70
2006,05,16,13,41,23.70
2006,05,16,13,42,23.70
2006,05,16,13,43,23.70
2006,05,16,13,44,23.70
2006,05,16,13,45,23.80
2006,05,16,13,46,23.90
2006,05,16,13,47,23.90
2006,05,16,13,48,23.90
2006,05,16,13,49,23.90
2006,05,16,13,50,23.90
2006,05,16,13,51,23.90
2006,05,16,13,52,23.90
2006,05,16,13,53,23.80
2006,05,16,13,54,23.80
2006,05,16,13,55,23.70
2006,05,16,13,56,23.70
2006,05,16,13,57,23.70
2006,05,16,13,58,23.70
2006,05,16,13,59,23.80
2006,05,16,14,00,23.90
2006,05,16,14,01,24.00
2006,05,16,14,02,24.10
2006,05,16,14,03,24.10
2006,05,16,14,04,24.20
2006,05,16,14,05,24.20
2006,05,16,14,06,24.20
2006,05,16,14,07,24.30
2006,05,16,14,08,24.40
2006,05,16,14,09,24.40
2006,05,16,14,10,24.30
2006,05,16,14,11,24.30
2006,05,16,14,12,24.30
2006,05,16,14,13,24.20
2006,05,16,14,14,24.20
2006,05,16,14,15,24.30
2006,05,16,14,16,24.40
2006,05,16,14,17,24.40
2006,05,16,14,18,24.40
2006,05,16,14,19,24.50
2006,05,16,14,20,24.60
2006,05,16,14,21,24.70
2006,05,16,14,22,24.80
2006,05,16,14,23,24.80
2006,05,16,14,24,24.80
2006,05,16,14,25,24.80
2006,05,16,14,26,24.90
2006,05,16,14,27,24.80
2006,05,16,14,28,24.80
2006,05,16,14,29,24.80
2006,05,16,14,30,24.80
2006,05,16,14,31,24.90
2006,05,16,14,32,24.90
2006,05,16,14,33,24.80
2006,05,16,14,34,24.80
2006,05,16,14,35,24.80
2006,05,16,14,36,24.80
2006,05,16,14,37,24.80
2006,05,16,14,38,24.80
2006,05,16,14,39,24.80
2006,05,16,14,40,24.70
2006,05,16,14,41,24.70
2006,05,16,14,42,24.60
2006,05,16,14,43,24.70
2006,05,16,14,44,24.70
2006,05,16,14,45,24.70
2006,05,16,14,46,24.80
2006,05,16,14,47,24.80
2006,05,16,14,48,24.80
2006,05,16,14,49,24.80
2006,05,16,14,50,24.90
2006,05,16,14,51,25.00
2006,05,16,14,52,25.00
2006,05,16,14,53,25.10
2006,05,16,14,54,25.20
2006,05,16,14,55,25.20
2006,05,16,14,56,25.30
2006,05,16,14,57,25.30
2006,05,16,14,58,25.30
2006,05,16,14,59,25.40
2006,05,16,15,00,25.50
2006,05,16,15,01,25.60
2006,05,16,15,02,25.80
2006,05,16,15,03,25.90
2006,05,16,15,04,25.90
2006,05,16,15,05,25.90
2006,05,16,15,06,25.90
2006,05,16,15,07,25.80
2006,05,16,15,08,25.70
2006,05,16,15,09,25.70
2006,05,16,15,10,25.70
2006,05,16,15,11,25.60
2006,05,16,15,12,25.40
2006,05,16,15,13,25.40
2006,05,16,15,14,25.40
2006,05,16,15,15,25.30
2006,05,16,15,16,25.10
2006,05,16,15,17,25.00
2006,05,16,15,18,24.90
2006,05,16,15,19,24.80
2006,05,16,15,20,24.80
2006,05,16,15,21,24.70
2006,05,16,15,22,24.60
2006,05,16,15,23,24.50
2006,05,16,15,24,24.50
2006,05,16,15,25,24.50
2006,05,16,15,26,24.50
2006,05,16,15,27,24.50
2006,05,16,15,28,24.40
2006,05,16,15,29,24.40
2006,05,16,15,30,24.40
2006,05,16,15,31,24.40
2006,05,16,15,32,24.40
2006,05,16,15,33,24.40
2006,05,16,15,34,24.40
2006,05,16,15,35,24.30
2006,05,16,15,36,24.20
2006,05,16,15,37,24.20
2006,05,16,15,38,24.20
2006,05,16,15,39,24.30
2006,05,16,15,40,24.50
2006,05,16,15,41,24.50
2006,05,16,15,42,24.50
2006,05,16,15,43,24.50
2006,05,16,15,44,24.50
2006,05,16,15,45,24.50
2006,05,16,15,46,24.50
2006,05,16,15,47,24.50
2006,05,16,15,48,24.50
2006,05,16,15,49,24.40
2006,05,16,15,50,24.40
2006,05,16,15,51,24.40
2006,05,16,15,52,24.50
2006,05,16,15,53,24.60
2006,05,16,15,54,24.60
2006,05,16,15,55,24.60
2006,05,16,15,56,24.70
2006,05,16,15,57,24.60
2006,05,16,15,58,24.60
2006,05,16,15,59,24.70
2006,05,16,16,00,24.70
2006,05,16,16,01,24.80
2006,05,16,16,02,24.80
2006,05,16,16,03,24.80
2006,05,16,16,04,24.70
2006,05,16,16,05,24.60
2006,05,16,16,06,24.50
2006,05,16,16,07,24.50
2006,05,16,16,08,24.50
2006,05,16,16,09,24.40
2006,05,16,16,10,24.30
2006,05,16,16,11,24.10
2006,05,16,16,12,24.00
2006,05,16,16,13,23.90
2006,05,16,16,14,23.90
2006,05,16,16,15,23.90
2006,05,16,16,16,23.90
2006,05,16,16,17,23.80
2006,05,16,16,18,23.80
2006,05,16,16,19,23.90
2006,05,16,16,20,23.90
2006,05,16,16,21,24.00
2006,05,16,16,22,24.10
2006,05,16,16,23,24.10
2006,05,16,16,24,24.10
2006,05,16,16,25,24.10
2006,05,16,16,26,24.10
2006,05,16,16,27,24.10
2006,05,16,16,28,24.10
2006,05,16,16,29,24.00
2006,05,16,16,30,23.80
2006,05,16,16,31,23.70
2006,05,16,16,32,23.70
2006,05,16,16,33,23.70
2006,05,16,16,34,23.70
2006,05,16,16,35,23.70
2006,05,16,16,36,23.70
2006,05,16,16,37,23.70
2006,05,16,16,38,23.70
2006,05,16,16,39,23.70
2006,05,16,16,40,23.60
2006,05,16,16,41,23.50
2006,05,16,16,42,23.40
2006,05,16,16,43,23.40
2006,05,16,16,44,23.40
2006,05,16,16,45,23.40
2006,05,16,16,46,23.30
2006,05,16,16,47,23.40
2006,05,16,16,48,23.40
2006,05,16,16,49,23.40
2006,05,16,16,50,23.40
2006,05,16,16,51,23.40
2006,05,16,16,52,23.50
2006,05,16,16,53,23.60
2006,05,16,16,54,23.60
2006,05,16,16,55,23.50
2006,05,16,16,56,23.40
2006,05,16,16,57,23.30
2006,05,16,16,58,23.30
2006,05,16,16,59,23.10
2006,05,16,17,00,23.10
2006,05,16,17,01,23.00
2006,05,16,17,02,22.90
2006,05,16,17,03,22.90
2006,05,16,17,04,22.90
2006,05,16,17,05,22.80
2006,05,16,17,06,22.80
2006,05,16,17,07,22.80
2006,05,16,17,08,22.70
2006,05,16,17,09,22.60
2006,05,16,17,10,22.60
2006,05,16,17,11,22.60
2006,05,16,17,12,22.60
2006,05,16,17,13,22.60
2006,05,16,17,14,22.60
2006,05,16,17,15,22.60
2006,05,16,17,16,22.60
2006,05,16,17,17,22.60
2006,05,16,17,18,22.60
2006,05,16,17,19,22.60